Location: Lesignano de� Bagni
(44.6500°N, 10.3000°E)
Time: 18:31:15
(UTC+00:00)

Cosmos 2366 rocket - Pass Details

Date: 03 March 2021
Orbit: 954 x 998 km, 82.9° (Epoch: 18 April)

Event Time Altitude Azimuth Distance (km) Brightness Sun altitude
Rises 18:20:27 0° 160° (SSE) 3,678 6.8 -13.4°
Reaches altitude 10° 18:23:08 10° 152° (SSE) 2,740 6.0 -13.9°
Maximum altitude 18:28:48 37° 88° (E) 1,499 4.5 -14.9°
Drops below altitude 10° 18:34:33 10° 23° (NNE) 2,774 6.2 -15.9°
Sets 18:37:16 0° 16° (NNE) 3,729 7.0 -16.4°
